CZ-3B DEB, 41119

Orbit data source: Space-Track

CZ-3B DEB, 41119 is space debris in HEO originally from a launch on Mon, 19 Dec 2011 UTC launched from the Xichang Space Center, China (XSC). Debris objects in space refer to the collection of defunct objects orbiting the Earth. Examples of debris include non-operational satellites, rocket bodies, and fragments generated from explosions, collisions, or faulty payload assembly.

Loading next visibility...
Identifier
41119, 2011-077AJ
Orbit
HEO
Country
Flag of CNCN / PRC
Related business
Manufacturer
CALT
Mission
Spacecraft
Bus & Motor
Unknown
Mass
Unknown
Launch date (UTC)
2011-12-19 (14 years ago)
Launch vehicle
Unknown
Launch site
Xichang Space Center, China (XSC)
Object type
Payload
Rocket body
Debris
Shape & HBR
Unknown
Radar Cross Section
Medium (>0.1 m² and <1 m²)

Expand to show TLE details & history
Last TLE update: 16 hours ago

TLE from 16 hours ago
0 CZ-3B DEB
1 41119U 11077AJ  25260.80623204 -.00000224  00000-0  00000-0 0  9991
2 41119  21.8929  50.3167 7292663 162.2670 251.9019  1.69789773 66376
Epoch: 2025-09-17T19:20Z
TLE epoch observation values (Epoch: 2025-09-17T19:20:58.448Z)
Latitude
0.00001°
Longitude
123.13242°
Altitude
39,029.787 km
Speed
2.031 km/s
True Right ascension
03h 21m 24s
True Declination
0° 00' 00"
Sunlit
Object was in daylight at epoch
Visualization orbit readout
Latitude
Unknown
Longitude
Unknown
Altitude
Unknown
Speed
Unknown
Apparent Right ascension
Unknown
Apparent Declination
Unknown
Sunlit
N/A
Visualization observer readout
Local Sidereal Time
04:36:19
Azimuth
Unknown
Elevation
Unknown
Doppler factor
Unknown
Orbital elements
Apogee altitude
44,952.495 km
Perigee altitude
1,658.18 km
Semi-major axis
29,683.475 km
Eccentricity
0.72927
Inclination
21.8929°
RAAN
50.3167°
Arg. of periapsis
162.267°
True anomaly
197.83596°
Mean anomaly
251.9019°
Eccentric anomaly
223.26456°
Mean motion
0.4244 °/min
Orbital period
848.26 mins
BSTAR
0
Loading maneuver chart data...
Computing Atmospheric mass density...
Loading historical data...
Loading historical data...
Loading historical data...
Loading historical data...
Loading historical data...
Loading historical data...
Loading historical data...

Documentation

Showing up to 5 results
|